Voltar ao catálogo

STARLINK-31040

AtivoComunicaçõesVLEO
NORAD 58722·PAYLOAD·🇺🇸 United States

Lançado Jan 3, 2024 de Vandenberg Space Force Base

Loading…

Próximas Passagens (próximas 24 horas)

TLE

AtualizadoSource: CelesTrak SupGP

Época: Sep 15, 2026, 02:59 UTC

1 58722C 24002T   26258.12479167 -.00024609  00000+0 -72720-3 0  2583
2 58722  53.1584  66.7240 0001066  97.3808 320.4981 15.34398606    18

Acompanhe STARLINK-31040 em tempo real com AllMySat

Download on the App Store